Time,TemperatureF,DewpointF,PressureIn,WindDirection,WindDirectionDegrees,WindSpeedMPH,WindSpeedGustMPH,Humidity,HourlyPrecipIn,Conditions,Clouds,dailyrainin,SoftwareType,DateUTC
2013-04-02 00:03:00,36.0,21.0,30.17,West,281,1.0,2.0,55,0.00,,,0.00,,2013-04-02 04:03:00,
2013-04-02 00:13:00,36.0,21.0,30.17,West,281,1.0,2.0,55,0.00,,,0.00,,2013-04-02 04:13:00,
2013-04-02 00:23:00,36.0,21.0,30.17,NW,320,0.0,3.0,55,0.00,,,0.00,,2013-04-02 04:23:00,
2013-04-02 00:33:00,36.0,22.0,30.17,NNW,335,0.0,3.0,56,0.00,,,0.00,,2013-04-02 04:33:00,
2013-04-02 00:43:00,36.0,22.0,30.17,NNW,335,0.0,3.0,56,0.00,,,0.00,,2013-04-02 04:43:00,
2013-04-02 00:53:00,35.0,22.0,30.17,NW,321,2.0,2.0,58,0.00,,,0.00,,2013-04-02 04:53:00,
2013-04-02 01:02:00,35.0,22.0,30.17,NW,311,0.0,0.0,58,0.00,,,0.00,,2013-04-02 05:02:00,
2013-04-02 01:12:00,35.0,22.0,30.17,NW,311,0.0,0.0,58,0.00,,,0.00,,2013-04-02 05:12:00,
2013-04-02 01:22:00,34.0,22.0,30.17,WNW,294,0.0,0.0,60,0.00,,,0.00,,2013-04-02 05:22:00,
2013-04-02 01:32:00,34.0,22.0,30.18,NNW,329,1.0,2.0,61,0.00,,,0.00,,2013-04-02 05:32:00,
2013-04-02 01:42:00,34.0,22.0,30.18,NNW,329,1.0,2.0,61,0.00,,,0.00,,2013-04-02 05:42:00,
2013-04-02 01:52:00,34.0,22.0,30.18,NNW,335,0.0,0.0,62,0.00,,,0.00,,2013-04-02 05:52:00,
2013-04-02 02:02:00,33.0,22.0,30.18,NW,326,0.0,0.0,63,0.00,,,0.00,,2013-04-02 06:02:00,
2013-04-02 02:12:00,33.0,22.0,30.18,NW,326,0.0,0.0,63,0.00,,,0.00,,2013-04-02 06:12:00,
2013-04-02 02:22:00,33.0,23.0,30.18,NNW,329,1.0,3.0,65,0.00,,,0.00,,2013-04-02 06:22:00,
2013-04-02 02:32:00,33.0,23.0,30.19,NNW,330,0.0,0.0,66,0.00,,,0.00,,2013-04-02 06:32:00,
2013-04-02 02:42:00,33.0,23.0,30.19,NNW,330,0.0,0.0,66,0.00,,,0.00,,2013-04-02 06:42:00,
2013-04-02 02:52:00,32.0,22.0,30.19,NNW,330,0.0,0.0,67,0.00,,,0.00,,2013-04-02 06:52:00,
2013-04-02 03:02:00,32.0,23.0,30.19,NNW,330,0.0,0.0,68,0.00,,,0.00,,2013-04-02 07:02:00,
2013-04-02 03:13:00,32.0,23.0,30.19,NNW,330,0.0,0.0,68,0.00,,,0.00,,2013-04-02 07:13:00,
2013-04-02 03:22:00,32.0,23.0,30.19,NNW,330,0.0,0.0,68,0.00,,,0.00,,2013-04-02 07:22:00,
2013-04-02 03:32:00,31.0,21.0,30.19,NNW,330,0.0,0.0,67,0.00,,,0.00,,2013-04-02 07:32:00,
2013-04-02 03:42:00,31.0,21.0,30.19,NNW,330,0.0,0.0,67,0.00,,,0.00,,2013-04-02 07:42:00,
2013-04-02 03:53:00,31.0,21.0,30.19,NNW,330,0.0,0.0,67,0.00,,,0.00,,2013-04-02 07:53:00,
2013-04-02 04:02:00,31.0,21.0,30.19,NNW,330,0.0,0.0,67,0.00,,,0.00,,2013-04-02 08:02:00,
2013-04-02 04:13:00,31.0,21.0,30.19,NNW,330,0.0,0.0,67,0.00,,,0.00,,2013-04-02 08:13:00,
2013-04-02 04:22:00,31.0,22.0,30.19,NNW,330,0.0,0.0,68,0.00,,,0.00,,2013-04-02 08:22:00,
2013-04-02 04:32:00,31.0,21.0,30.20,NNW,330,0.0,0.0,67,0.00,,,0.00,,2013-04-02 08:32:00,
2013-04-02 04:42:00,31.0,21.0,30.20,NNW,330,0.0,0.0,67,0.00,,,0.00,,2013-04-02 08:42:00,
2013-04-02 04:52:00,30.0,21.0,30.20,NNW,330,0.0,0.0,68,0.00,,,0.00,,2013-04-02 08:52:00,
2013-04-02 05:02:00,30.0,21.0,30.20,NNW,330,0.0,0.0,69,0.00,,,0.00,,2013-04-02 09:02:00,
2013-04-02 05:12:00,30.0,21.0,30.20,NNW,330,0.0,0.0,69,0.00,,,0.00,,2013-04-02 09:12:00,
2013-04-02 05:22:00,30.0,21.0,30.21,WNW,295,0.0,0.0,68,0.00,,,0.00,,2013-04-02 09:22:00,
2013-04-02 05:32:00,30.0,21.0,30.21,WNW,295,0.0,0.0,70,0.00,,,0.00,,2013-04-02 09:32:00,
2013-04-02 05:43:00,30.0,21.0,30.21,WNW,295,0.0,0.0,70,0.00,,,0.00,,2013-04-02 09:43:00,
2013-04-02 05:53:00,30.0,21.0,30.21,NW,315,0.0,0.0,70,0.00,,,0.00,,2013-04-02 09:53:00,
2013-04-02 06:03:00,30.0,21.0,30.22,NW,309,0.0,0.0,70,0.00,,,0.00,,2013-04-02 10:03:00,
2013-04-02 06:13:00,30.0,21.0,30.22,NW,309,0.0,0.0,70,0.00,,,0.00,,2013-04-02 10:13:00,
2013-04-02 06:23:00,29.0,21.0,30.23,NW,309,0.0,0.0,71,0.00,,,0.00,,2013-04-02 10:23:00,
2013-04-02 06:33:00,29.0,21.0,30.23,NW,309,0.0,0.0,71,0.00,,,0.00,,2013-04-02 10:33:00,
2013-04-02 06:42:00,29.0,21.0,30.23,NW,309,0.0,0.0,71,0.00,,,0.00,,2013-04-02 10:42:00,
2013-04-02 06:53:00,29.0,21.0,30.24,WSW,241,0.0,0.0,72,0.00,,,0.00,,2013-04-02 10:53:00,
2013-04-02 07:02:00,29.0,21.0,30.24,WSW,241,0.0,0.0,71,0.00,,,0.00,,2013-04-02 11:02:00,
2013-04-02 07:12:00,29.0,21.0,30.24,WSW,241,0.0,0.0,71,0.00,,,0.00,,2013-04-02 11:12:00,
2013-04-02 07:22:00,29.0,21.0,30.24,WSW,241,0.0,0.0,72,0.00,,,0.00,,2013-04-02 11:22:00,
2013-04-02 07:33:00,29.0,21.0,30.25,West,267,0.0,0.0,72,0.00,,,0.00,,2013-04-02 11:33:00,
2013-04-02 07:43:00,29.0,21.0,30.25,West,267,0.0,0.0,72,0.00,,,0.00,,2013-04-02 11:43:00,
2013-04-02 07:53:00,28.0,20.0,30.25,West,267,0.0,0.0,72,0.00,,,0.00,,2013-04-02 11:53:00,
2013-04-02 08:02:00,28.0,20.0,30.26,West,267,0.0,0.0,73,0.00,,,0.00,,2013-04-02 12:02:00,
2013-04-02 08:12:00,28.0,20.0,30.26,West,267,0.0,0.0,73,0.00,,,0.00,,2013-04-02 12:12:00,
2013-04-02 08:23:00,29.0,21.0,30.27,WNW,302,0.0,0.0,73,0.00,,,0.00,,2013-04-02 12:23:00,
2013-04-02 08:32:00,29.0,21.0,30.27,NW,307,2.0,2.0,71,0.00,,,0.00,,2013-04-02 12:32:00,
2013-04-02 08:42:00,29.0,21.0,30.27,NW,307,2.0,2.0,71,0.00,,,0.00,,2013-04-02 12:42:00,
2013-04-02 08:53:00,30.0,22.0,30.28,NW,320,0.0,0.0,71,0.00,,,0.00,,2013-04-02 12:53:00,
2013-04-02 09:02:00,30.0,22.0,30.29,WNW,289,1.0,7.0,71,0.00,,,0.00,,2013-04-02 13:02:00,
2013-04-02 09:12:00,31.0,22.0,30.29,NW,322,5.0,8.0,69,0.00,,,0.00,,2013-04-02 13:12:00,
2013-04-02 09:22:00,31.0,22.0,30.29,NW,322,5.0,8.0,69,0.00,,,0.00,,2013-04-02 13:22:00,
2013-04-02 09:33:00,31.0,22.0,30.29,NW,326,6.0,8.0,69,0.00,,,0.00,,2013-04-02 13:33:00,
2013-04-02 09:42:00,31.0,22.0,30.29,NW,326,6.0,8.0,69,0.00,,,0.00,,2013-04-02 13:42:00,
2013-04-02 09:52:00,31.0,22.0,30.29,NNW,340,3.0,6.0,68,0.00,,,0.00,,2013-04-02 13:52:00,
2013-04-02 10:02:00,32.0,22.0,30.30,NW,323,5.0,8.0,66,0.00,,,0.00,,2013-04-02 14:02:00,
2013-04-02 10:23:00,33.0,22.0,30.30,NW,325,5.0,6.0,63,0.00,,,0.00,,2013-04-02 14:23:00,
2013-04-02 10:32:00,33.0,22.0,30.30,NNW,333,3.0,8.0,63,0.00,,,0.00,,2013-04-02 14:32:00,
2013-04-02 10:42:00,33.0,22.0,30.30,NNW,333,3.0,8.0,63,0.00,,,0.00,,2013-04-02 14:42:00,
2013-04-02 10:52:00,34.0,23.0,30.30,NNW,347,3.0,5.0,63,0.00,,,0.00,,2013-04-02 14:52:00,
2013-04-02 11:02:00,34.0,22.0,30.30,NNW,331,2.0,6.0,60,0.00,,,0.00,,2013-04-02 15:02:00,
2013-04-02 11:11:00,34.0,22.0,30.30,NNW,331,2.0,6.0,60,0.00,,,0.00,,2013-04-02 15:11:00,
2013-04-02 11:22:00,35.0,21.0,30.30,NW,313,0.0,0.0,56,0.00,,,0.00,,2013-04-02 15:22:00,
2013-04-02 11:33:00,35.0,21.0,30.30,NNW,328,3.0,7.0,56,0.00,,,0.00,,2013-04-02 15:33:00,
2013-04-02 11:43:00,35.0,21.0,30.30,NNW,328,3.0,7.0,56,0.00,,,0.00,,2013-04-02 15:43:00,
2013-04-02 11:58:00,36.0,20.0,30.30,NW,314,3.0,3.0,52,0.00,,,0.00,,2013-04-02 15:58:00,
2013-04-02 12:04:00,37.0,20.0,30.31,South,178,2.0,5.0,49,0.00,,,0.00,,2013-04-02 16:04:00,
2013-04-02 12:13:00,37.0,20.0,30.31,South,178,2.0,5.0,49,0.00,,,0.00,,2013-04-02 16:13:00,
2013-04-02 12:24:00,37.0,21.0,30.31,NNW,327,2.0,6.0,51,0.00,,,0.00,,2013-04-02 16:24:00,
2013-04-02 12:36:00,37.0,20.0,30.30,North,4,5.0,9.0,49,0.00,,,0.00,,2013-04-02 16:36:00,
2013-04-02 12:44:00,37.0,20.0,30.30,North,4,5.0,9.0,49,0.00,,,0.00,,2013-04-02 16:44:00,
2013-04-02 12:53:00,38.0,18.0,30.30,NNW,340,6.0,7.0,43,0.00,,,0.00,,2013-04-02 16:53:00,
2013-04-02 13:05:00,38.0,18.0,30.29,NNW,327,7.0,8.0,44,0.00,,,0.00,,2013-04-02 17:05:00,
2013-04-02 13:13:00,38.0,18.0,30.29,NNW,327,7.0,8.0,44,0.00,,,0.00,,2013-04-02 17:13:00,
2013-04-02 13:25:00,40.0,19.0,30.28,North,9,3.0,5.0,43,0.00,,,0.00,,2013-04-02 17:25:00,
2013-04-02 13:34:00,40.0,18.0,30.28,NNW,329,1.0,8.0,41,0.00,,,0.00,,2013-04-02 17:34:00,
2013-04-02 13:43:00,40.0,18.0,30.28,NNW,329,1.0,8.0,41,0.00,,,0.00,,2013-04-02 17:43:00,
2013-04-02 13:56:00,40.0,18.0,30.28,NW,315,6.0,8.0,40,0.00,,,0.00,,2013-04-02 17:56:00,
2013-04-02 14:04:00,41.0,20.0,30.28,NNW,344,6.0,7.0,42,0.00,,,0.00,,2013-04-02 18:04:00,
2013-04-02 14:12:00,41.0,20.0,30.28,NNW,344,6.0,7.0,42,0.00,,,0.00,,2013-04-02 18:12:00,
2013-04-02 14:23:00,40.0,18.0,30.27,NW,317,10.0,15.0,40,0.00,,,0.00,,2013-04-02 18:23:00,
2013-04-02 14:34:00,41.0,20.0,30.26,North,353,1.0,5.0,42,0.00,,,0.00,,2013-04-02 18:34:00,
2013-04-02 14:43:00,41.0,20.0,30.26,North,353,1.0,5.0,42,0.00,,,0.00,,2013-04-02 18:43:00,
2013-04-02 14:57:00,42.0,19.0,30.26,North,351,5.0,8.0,39,0.00,,,0.00,,2013-04-02 18:57:00,
2013-04-02 15:13:00,42.0,19.0,30.25,NNW,330,3.0,5.0,40,0.00,,,0.00,,2013-04-02 19:13:00,
2013-04-02 15:23:00,42.0,19.0,30.25,NW,314,5.0,7.0,39,0.00,,,0.00,,2013-04-02 19:23:00,
2013-04-02 15:34:00,43.0,19.0,30.24,NW,307,8.0,12.0,38,0.00,,,0.00,,2013-04-02 19:34:00,
2013-04-02 15:45:00,43.0,19.0,30.24,NW,307,8.0,12.0,38,0.00,,,0.00,,2013-04-02 19:45:00,
2013-04-02 15:57:00,44.0,19.0,30.24,NNW,339,5.0,7.0,36,0.00,,,0.00,,2013-04-02 19:57:00,
2013-04-02 16:03:00,43.0,17.0,30.23,NW,320,2.0,10.0,35,0.00,,,0.00,,2013-04-02 20:03:00,
2013-04-02 16:22:00,44.0,19.0,30.23,NW,318,8.0,12.0,36,0.00,,,0.00,,2013-04-02 20:22:00,
2013-04-02 16:33:00,44.0,17.0,30.23,North,349,3.0,8.0,34,0.00,,,0.00,,2013-04-02 20:33:00,
2013-04-02 16:44:00,44.0,17.0,30.23,North,349,3.0,8.0,34,0.00,,,0.00,,2013-04-02 20:44:00,
2013-04-02 16:55:00,44.0,17.0,30.23,North,349,3.0,8.0,34,0.00,,,0.00,,2013-04-02 20:55:00,
2013-04-02 17:04:00,44.0,16.0,30.22,NNW,346,7.0,9.0,32,0.00,,,0.00,,2013-04-02 21:04:00,
2013-04-02 17:13:00,44.0,16.0,30.22,NNW,346,7.0,9.0,32,0.00,,,0.00,,2013-04-02 21:13:00,
2013-04-02 17:23:00,44.0,17.0,30.23,NNW,339,7.0,13.0,34,0.00,,,0.00,,2013-04-02 21:23:00,
2013-04-02 17:34:00,45.0,18.0,30.23,North,349,5.0,8.0,33,0.00,,,0.00,,2013-04-02 21:34:00,
2013-04-02 17:44:00,45.0,18.0,30.23,North,349,5.0,8.0,33,0.00,,,0.00,,2013-04-02 21:44:00,
2013-04-02 17:56:00,46.0,18.0,30.23,NW,311,6.0,8.0,32,0.00,,,0.00,,2013-04-02 21:56:00,
2013-04-02 18:04:00,45.0,17.0,30.23,NNW,327,2.0,6.0,32,0.00,,,0.00,,2013-04-02 22:04:00,
2013-04-02 18:14:00,45.0,17.0,30.23,NNW,327,2.0,6.0,32,0.00,,,0.00,,2013-04-02 22:14:00,
2013-04-02 18:24:00,45.0,18.0,30.23,NNW,332,5.0,9.0,33,0.00,,,0.00,,2013-04-02 22:24:00,
2013-04-02 18:33:00,45.0,17.0,30.23,NNW,346,5.0,8.0,32,0.00,,,0.00,,2013-04-02 22:33:00,
2013-04-02 18:43:00,45.0,17.0,30.23,NNW,346,5.0,8.0,32,0.00,,,0.00,,2013-04-02 22:43:00,
2013-04-02 18:54:00,45.0,16.0,30.23,NNW,331,8.0,13.0,31,0.00,,,0.00,,2013-04-02 22:54:00,
2013-04-02 19:03:00,45.0,17.0,30.24,NNW,332,7.0,12.0,32,0.00,,,0.00,,2013-04-02 23:03:00,
2013-04-02 19:13:00,44.0,16.0,30.24,NW,325,9.0,15.0,32,0.00,,,0.00,,2013-04-02 23:13:00,
2013-04-02 19:23:00,44.0,16.0,30.24,NW,325,9.0,15.0,32,0.00,,,0.00,,2013-04-02 23:23:00,
2013-04-02 19:35:00,44.0,17.0,30.24,NNW,344,3.0,8.0,34,0.00,,,0.00,,2013-04-02 23:35:00,
2013-04-02 19:43:00,44.0,17.0,30.24,NNW,344,3.0,8.0,34,0.00,,,0.00,,2013-04-02 23:43:00,
2013-04-02 19:54:00,43.0,17.0,30.24,NNW,348,5.0,8.0,35,0.00,,,0.00,,2013-04-02 23:54:00,
2013-04-02 20:04:00,43.0,18.0,30.24,NNW,334,5.0,7.0,36,0.00,,,0.00,,2013-04-03 00:04:00,
2013-04-02 20:13:00,43.0,18.0,30.24,NNW,334,5.0,7.0,36,0.00,,,0.00,,2013-04-03 00:13:00,
2013-04-02 20:33:00,41.0,20.0,30.25,NNW,332,5.0,7.0,42,0.00,,,0.00,,2013-04-03 00:33:00,
2013-04-02 20:47:00,41.0,20.0,30.25,NNW,332,5.0,7.0,42,0.00,,,0.00,,2013-04-03 00:47:00,
2013-04-02 21:03:00,41.0,20.0,30.26,NNW,342,3.0,8.0,42,0.00,,,0.00,,2013-04-03 01:03:00,
2013-04-02 21:12:00,41.0,20.0,30.26,NNW,342,3.0,8.0,42,0.00,,,0.00,,2013-04-03 01:12:00,
2013-04-02 21:23:00,40.0,19.0,30.26,North,352,1.0,2.0,42,0.00,,,0.00,,2013-04-03 01:23:00,
2013-04-02 21:33:00,40.0,19.0,30.26,NNW,343,2.0,5.0,42,0.00,,,0.00,,2013-04-03 01:33:00,
2013-04-02 21:43:00,40.0,19.0,30.26,NNW,343,2.0,5.0,42,0.00,,,0.00,,2013-04-03 01:43:00,
2013-04-02 21:53:00,40.0,19.0,30.27,North,0,0.0,0.0,43,0.00,,,0.00,,2013-04-03 01:53:00,
2013-04-02 22:03:00,39.0,19.0,30.27,NNW,347,0.0,0.0,44,0.00,,,0.00,,2013-04-03 02:03:00,
2013-04-02 22:13:00,39.0,19.0,30.27,NNW,347,0.0,0.0,44,0.00,,,0.00,,2013-04-03 02:13:00,
2013-04-02 22:24:00,39.0,19.0,30.28,NNW,347,0.0,0.0,45,0.00,,,0.00,,2013-04-03 02:24:00,
2013-04-02 22:34:00,39.0,19.0,30.28,NNW,347,0.0,0.0,45,0.00,,,0.00,,2013-04-03 02:34:00,
2013-04-02 22:43:00,39.0,19.0,30.28,NNW,347,0.0,0.0,45,0.00,,,0.00,,2013-04-03 02:43:00,
2013-04-02 22:53:00,39.0,19.0,30.29,NNW,347,0.0,0.0,45,0.00,,,0.00,,2013-04-03 02:53:00,
2013-04-02 23:05:00,38.0,19.0,30.29,NNW,347,0.0,0.0,46,0.00,,,0.00,,2013-04-03 03:05:00,
2013-04-02 23:14:00,38.0,19.0,30.29,NNW,347,0.0,0.0,46,0.00,,,0.00,,2013-04-03 03:14:00,
2013-04-02 23:23:00,38.0,19.0,30.29,NW,325,0.0,0.0,46,0.00,,,0.00,,2013-04-03 03:23:00,
2013-04-02 23:37:00,38.0,19.0,30.29,NW,325,0.0,0.0,46,0.00,,,0.00,,2013-04-03 03:37:00,
2013-04-02 23:44:00,38.0,19.0,30.29,NW,325,0.0,0.0,46,0.00,,,0.00,,2013-04-03 03:44:00,
2013-04-02 23:54:00,38.0,19.0,30.29,NW,325,0.0,0.0,46,0.00,,,0.00,,2013-04-03 03:54:00,